Regional Weather Roundup
Issued by NWS

Home | Current Version | Previous Version | Text Only | Print | Product List | Glossary Off
Versions: 1 2 3 4 5 6 7 8 9 10 11 12 13 14 15 16 17 18 19 20 21 22 23 24 25 26 27 28 29 30 31 32 33 34 35 36 37 38 39 40 41 42 43 44 45 46 47 48 49 50

000
ASUS43 KFSD 281510
RWRSD

WEATHER ROUNDUP FOR SOUTH DAKOTA
NATIONAL WEATHER SERVICE SIOUX FALLS SD
1000 AM CDT THU MAY 28 2015

NOTE: "FAIR" INDICATES FEW OR NO CLOUDS BELOW 12,000 FEET WITH NO
SIGNIFICANT WEATHER AND/OR OBSTRUCTIONS TO VISIBILITY.


SDZ001>005-009-010-012>017-281600-
NORTHWEST AND NORTH CENTRAL SOUTH DAKOTA

CITY           SKY/WX    TMP DP  RH WIND       PRES   REMARKS
BUFFALO          N/A     65  56  72 NW12      29.87S
FAITH            N/A     63  56  78 N3        29.92R
MOBRIDGE       MOSUNNY   67  62  84 SW6       29.85F
$$

SDZ012>016-024>037-041>051-057-063-072>074-281600-
SOUTHWEST AND SOUTH CENTRAL SOUTH DAKOTA

CITY           SKY/WX    TMP DP  RH WIND       PRES   REMARKS
RAPID CTY ARPT MOSUNNY   64  55  72 N12       29.95R
PIERRE         MOSUNNY   70  58  65 S9        29.86F
CUSTER         PTSUNNY   60  50  69 W8        30.02S
ELLSWORTH AFB  MOSUNNY   64  52  64 N12       29.94F
PHILIP         MOSUNNY   67  58  72 W3        29.90F
PINE RIDGE     MOSUNNY   68  54  60 W9        29.95S
SPEARFISH      FAIR      63  48  59 NW8       30.00R
WINNER         FAIR      73  58  59 S15       29.92S
$$

SDZ004>011-016>023-039-040-281600-
NORTHEAST SOUTH DAKOTA

CITY           SKY/WX    TMP DP  RH WIND       PRES   REMARKS
ABERDEEN       MOSUNNY   73  61  65 S20       29.90F
WATERTOWN      LGT RAIN  63  59  87 S14       29.99S
BROOKINGS      CLOUDY    63  57  82 S3        30.05F
SISSETON         N/A     73  59  61 SW25G32   29.93R
$$

SDZ017-020-022-023-036>040-048>070-281600-
SOUTHEAST SOUTH DAKOTA

CITY           SKY/WX    TMP DP  RH WIND       PRES   REMARKS
SIOUX FALLS    CLOUDY    70  55  59 S10       30.02F
HURON            N/A    N/A N/A N/A MISG      29.93F
CHAMBERLAIN    SUNNY     71  60  68 S15       29.92S
MITCHELL       MOSUNNY   73  59  61 SE22      29.95F
YANKTON        PTSUNNY   73  57  56 S15       29.98F
$$

ABBREVIATIONS USED IN REMARKS
   TC - TEMPERATURE IN CELSIUS
  WCI - WIND CHILL INDEX
   HX - HEAT INDEX
  VSB - VISIBILITY




USA.gov is the U.S. government's official web portal to all federal, state and local government web resources and services.